IRIDIUM 18 [-]

Last updated on Aug. 17, 2018, 12:20 a.m. UTC

1 24872U 97034D   18228.86990711  .02689496 -14623-5  91434-3 0  9998
2 24872  86.3587 196.9596 0096487  79.7226 281.4930 16.14626855106035

Satellite is not in orbit.